Regional Weather Roundup
Issued by NWS State College, PA

Home | Current Version | Previous Version | Graphics & Text | Print | Product List | Glossary On
Versions: 1 2 3 4 5 6 7 8 9 10 11 12 13 14 15 16 17 18 19 20 21 22 23 24 25 26 27 28 29 30 31 32 33 34 35 36 37 38 39 40 41 42 43 44 45 46 47 48 49 50
000
ASUS41 KCTP 152010
RWRCTP

REGIONAL WEATHER ROUNDUP
NATIONAL WEATHER SERVICE STATE COLLEGE PA
400 PM EDT MON SEP 15 2014

Note: "fair" indicates few or no clouds below 12,000 feet with no
significant weather and/or obstructions to visibility.

* = STATION THAT DOES NOT REPORT PRECIPITATION /E.G. RAIN...SNOW...ETC/
    THUNDER OR FOG.

PAZ002>004-007>009-013>016-020>023-029>032-152100-
WESTERN PENNSYLVANIA

CITY           SKY/WX    TMP DP  RH WIND       PRES   REMARKS
ERIE           CLOUDY    66  48  52 S9        30.09F
MEADVILLE      LGT RAIN  61  50  67 CALM      30.07F
FRANKLIN*      CLOUDY    63  46  55 S9        30.11F
NEW CASTLE     FAIR      66  50  56 CALM      30.09F
BEAVER COUNTY  MOSUNNY   66  50  55 S6        30.15S
BUTLER*        MOSUNNY   66  46  48 S5        30.14F
PITTSBURGH INT CLOUDY    67  46  47 SW9       30.12F
PITTSBURGH     PTSUNNY   67  45  45 S9        30.13R
INDIANA*       SUNNY     70  48  46 SW8       30.15F
LATROBE        MOSUNNY   66  48  52 SW12      30.12F
WASHINGTON CO* PTSUNNY   68  48  49 S6        30.13F
$$

PAZ004>006-010>012-017>019-024>028-033>037-041-042-045-046-049>053-152100-
CENTRAL PENNSYLVANIA

CITY           SKY/WX    TMP DP  RH WIND       PRES   REMARKS
BRADFORD       CLOUDY    62  46  55 SW7       30.13S
DUBOIS         MOSUNNY   64  46  52 SW8       30.13S
CLEARFIELD     MOSUNNY   67  49  52 S10G17    30.12F
JOHNSTOWN      MOSUNNY   65  42  43 W6        30.15F
ALTOONA        MOSUNNY   66  48  52 S7        30.15F
STATE COLLEGE  MOSUNNY   66  48  52 SW6       30.15F
WILLIAMSPORT   MOSUNNY   68  47  46 S7        30.12F
SELINSGROVE    MOSUNNY   69  47  45 S6        30.14F
FT INDIANTOWN  MOSUNNY   71  47  42 VRB3      30.14F
CAPITAL CITY   MOSUNNY   72  47  40 VRB3      30.14F
HARRISBURG     PTSUNNY   72  48  42 SW3       30.13F
YORK           PTSUNNY   72  49  44 CALM      30.14F
$$

PAZ038>040-043-044-047-048-054-055-060>062-067>071-152100-
EASTERN PENNSYLVANIA

CITY           SKY/WX    TMP DP  RH WIND       PRES   REMARKS
SCRANTON       SUNNY     68  42  38 SW6       30.13F
MOUNT POCONO   MOSUNNY   65  44  46 SW7       30.15F
ALLENTOWN      SUNNY     69  45  41 CALM      30.15F
QUAKERTOWN*    PTCLDY    68  48  49 MISG      30.16S
READING        MOSUNNY   71  47  42 CALM      30.14F
LANCASTER      SUNNY     70  46  42 SW8       30.15F
COATESVILLE    CLEAR     68  48  49 W3        30.17S
POTTSTOWN      SUNNY     67  46  47 CALM      30.17F
BLUE BELL      SUNNY     72  46  40 W3        30.14F
DOYLESTOWN     SUNNY     69  46  43 SW5       30.13F
WILLOW GROVE   NOT AVBL
NORTH PHILA    SUNNY     72  43  35 VRB5      30.15F
PHILADELPHIA   MOSUNNY   71  45  39 S5        30.15F
$$



USA.gov is the U.S. government's official web portal to all federal, state and local government web resources and services.